Retour au catalogue

DELTA 1 DEB

ActifPO
NORAD 21506·DEBRIS·🇺🇸 United States

Lancé Jun 12, 1975 depuis Vandenberg Space Force Base

Loading…

Prochains Passages (prochaines 24 heures)

TLE

FraisSource: Space-Track

Époque: Sep 14, 2026, 00:32 UTC

1 21506U 75052GB  26257.02272699  .00000322  00000-0  89123-3 0  9995
2 21506  99.5720 100.2600 0175229 280.0491 238.2032 13.15442384688273

Suivez DELTA 1 DEB en temps réel avec AllMySat

Download on the App Store